Onsdagen den 24 maj 2017 (Ivan, Vanja)

Blekinge Flygklubb
Eringsbodavägen 16 B
372 92 Kallinge
Org.nr. 835600-0144

Det finns inget på Anslagstavlan.

Väder ESDF

METAR
ESDF 240020Z AUTO 01003KT 9999 NCD 08/08 Q1012

TAF
Ej tillgänglig

Förgasaris
Okänd

METAR | TAF | Nordic SWC | Väderstatistik

Inhämta alltid aktuellt väder hos LFV innan du flyger.

NOTAM för kommande 24h

+ = 0-3 dgr | - = >3 dgr gammal
Endast VFR. Kontrollera alltid hos LFV.